Station 44008 (LLNR 827) - NANTUCKET 54 NM Southeast of Nantucket Image indicating link to RSS feed of recent meteorological observations for station 44008

Nantucket Shoals LB "N"


Conditions at 44008 as of
(12:40 pm EDT)
1640 GMT on 05/28/2024:
     

Click on the graph icon in the table below to see a time series plot of the last five days of that observation.

5-day plot - Wind Direction Wind Direction (WDIR): S ( 190 deg true )
5-day plot - Wind Speed Wind Speed (WSPD): 11.7 kts
5-day plot - Wind Gust Wind Gust (GST): 13.6 kts
5-day plot - Wave Height Wave Height (WVHT): 4.6 ft
5-day plot - Average Wave Period Average Period (APD): 4.9 sec
5-day plot - Mean Wave Direction Mean Wave Direction (MWD): SE ( 135 deg true )
5-day plot - Atmospheric Pressure Atmospheric Pressure (PRES):29.75 in
5-day plot - Water Temperature Water Temperature (WTMP): 51.1 °F
5-day plot - Wind Speed at 10 Meters Wind Speed at 10 meters (WSPD10M): 11.7 kts
5-day plot - Wind Speed at 20 Meters Wind Speed at 20 meters (WSPD20M): 13.6 kts
5-day plot -  Wind Speed, Wind Gust and Atmospheric Pressure Combined plot of Wind Speed, Gust, and Air Pressure
Supplemental Measurements
Highest 1-minute Wind Speed
Time (EDT)5-day plot - 1-Minute Wind Speed WSPD 5-day plot - 1-Minute Wind Direction WDIR
12:32 pm 11.7 kts-
Previous observations
TIME
(EDT)
5-day plot - Wind Direction
WDIR
 
5-day plot - Wind Speed
WSPD
kts
5-day plot - Wind Gust
GST
kts
5-day plot - Wave Height
WVHT
ft
5-day plot - Dominant Wave Period
DPD
sec
5-day plot - Average Wave Period
APD
sec
5-day plot - Mean Wave Direction
MWD
 
5-day plot - Atmospheric Pressure
PRES
in
5-day plot - Pressure Tendency
PTDY
in
5-day plot - Air Temperature
ATMP
°F
5-day plot - Water Temperature
WTMP
°F
5-day plot - Dew Point
DEWP
°F
5-day plot - Salinity
SAL
psu
5-day plot - Visibility
VIS
nmi
5-day plot - Tide (above MLLW)
TIDE
ft
2024-05-28 12:30 pm S 11.7 13.6----29.76-- 51.1----
2024-05-28 12:20 pm S 11.7 13.6 4.3 74.6 SE29.76-- 51.1----
2024-05-28 12:10 pm S 11.7 13.6 4.3-4.6 SE29.77-- 51.1----
2024-05-28 12:00 pmSSW 11.7 15.5----29.77+0.02- 50.9----
2024-05-28 11:50 amSSW 11.7 13.6 4.6 64.6SSE29.77-- 50.9----
2024-05-28 11:40 amSSW 13.6 15.5----29.76-- 51.1----
2024-05-28 11:30 amSSW 13.6 15.5----29.76-- 51.1----
2024-05-28 11:20 amSSW 13.6 15.5 4.6 54.6 S29.76-- 51.1----
2024-05-28 11:10 amSSW 13.6 15.5 4.6-4.6 S29.75-- 51.1----
2024-05-28 11:00 am S 13.6 15.5----29.75+0.00- 51.1----
2024-05-28 10:50 am S 13.6 15.5 4.9 64.8SSE29.75-- 51.1----
2024-05-28 10:40 am S 13.6 17.5 4.9-4.8SSE29.75-- 51.3----
2024-05-28 10:30 am S 13.6 15.5----29.74-- 51.4----
2024-05-28 10:20 am S 13.6 17.5 4.9 64.8SSE29.74-- 51.6----
2024-05-28 10:10 am S 15.5 17.5 4.9-4.8SSE29.74-- 51.8----
2024-05-28 10:00 am S 13.6 17.5----29.74-0.01- 52.0----
2024-05-28 09:50 am S 13.6 15.5 4.6 65.0 SE29.74-- 52.0----
2024-05-28 09:40 am S 11.7 15.5----29.75-- 52.2----
2024-05-28 09:30 am S 11.7 13.6----29.75-- 52.3----
2024-05-28 09:20 am S 9.7 11.7 4.3 64.9 SE29.74-- 52.3----
2024-05-28 09:10 am S 9.7 11.7 4.3-4.9 SE29.75-- 52.5----
2024-05-28 09:00 am S 11.7 13.6----29.74+0.00- 52.5----
2024-05-28 08:50 am S 11.7 13.6 4.3 65.0 SE29.75-- 52.7----
2024-05-28 08:40 am S 11.7 13.6 4.3-5.0 SE29.75-- 52.7----
2024-05-28 08:30 am S 11.7 15.5----29.76-- 52.7----
2024-05-28 08:20 am S 11.7 13.6 4.6 65.0 SE29.76-- 52.9----
2024-05-28 08:10 am S 9.7 11.7 4.6-5.0 SE29.75-- 52.9----
2024-05-28 08:00 amSSE 9.7 13.6----29.75+0.01- 52.9----
2024-05-28 07:50 am S 11.7 13.6 4.3 65.1 SE29.75-- 52.9----
2024-05-28 07:40 amSSW 7.8 11.7----29.75-- 53.1----
2024-05-28 07:30 amSSW 9.7 11.7----29.75-- 53.1----
2024-05-28 07:20 amSSW 11.7 13.6 4.3 64.8SSE29.76-- 53.1----
2024-05-28 07:10 amSSW 13.6 17.5 4.3-4.8SSE29.76-- 53.2----
2024-05-28 07:00 am SW 15.5 19.4----29.76+0.00- 53.2----
2024-05-28 06:50 am SW 19.4 23.3 4.3 64.9 SE29.76-- 53.2----
2024-05-28 06:40 am SW 19.4 27.2----29.76-- 53.2----
2024-05-28 06:30 amSSW 17.5 21.4----29.76-- 53.4----
2024-05-28 06:20 am S 21.4 29.1 3.9 64.9SSE29.75-- 53.4----
2024-05-28 06:10 am S 15.5 21.4 3.9-4.9SSE29.76-- 53.2----
2024-05-28 06:00 amSSE 15.5 19.4----29.75-0.02- 53.2----
2024-05-28 05:50 amSSE 15.5 17.5 3.9 64.9SSE29.74-- 53.2----
2024-05-28 05:40 amSSE 15.5 19.4 3.9-4.9SSE29.74-- 53.2----
2024-05-28 05:30 amSSE 15.5 19.4----29.75-- 53.2----
2024-05-28 05:20 amSSE 15.5 19.4 3.6 64.8SSE29.75-- 53.2----
2024-05-28 05:10 amSSE 15.5 19.4 3.6-4.8SSE29.74-- 53.2----
2024-05-28 05:00 amSSE 13.6 17.5----29.74-0.06- 53.6----
2024-05-28 04:50 amSSE 13.6 15.5 3.6 54.8SSE29.75-- 53.8----
2024-05-28 04:40 amSSE 13.6 15.5----29.75-- 53.8----
2024-05-28 04:30 amSSE 13.6 15.5----29.75-- 54.0----
2024-05-28 04:20 amSSE 13.6 15.5 3.6 64.6SSE29.75-- 54.0----
2024-05-28 04:10 amSSE 13.6 17.5 3.6-4.6SSE29.75-- 54.0----
2024-05-28 04:00 amSSE 13.6 15.5----29.75-0.06- 53.8----
2024-05-28 03:50 amSSE 13.6 17.5 3.6 64.7 SE29.75-- 53.8----
2024-05-28 03:40 amSSE 13.6 17.5 3.6-4.7 SE29.75-- 53.8----
2024-05-28 03:30 amSSE 13.6 17.5----29.76-- 53.8----
2024-05-28 03:20 amSSE 13.6 17.5 3.6 64.6 SE29.77-- 53.6----
2024-05-28 03:10 amSSE 15.5 17.5 3.6-4.6 SE29.77-- 53.6----
2024-05-28 03:00 amSSE 13.6 17.5----29.77-0.07- 53.6----
2024-05-28 02:50 amSSE 13.6 17.5 3.6 54.5SSE29.78-- 53.8----
2024-05-28 02:40 amSSE 13.6 15.5----29.78-- 53.6----
2024-05-28 02:30 amSSE 13.6 15.5----29.78-- 53.4----
2024-05-28 02:20 amSSE 11.7 15.5 3.6 54.4 SE29.78-- 53.2----
2024-05-28 02:10 amSSE 11.7 15.5 3.6-4.4 SE29.79-- 53.2----
2024-05-28 02:00 amSSE 13.6 15.5----29.80-0.06- 53.4----
2024-05-28 01:50 am SE 13.6 15.5 3.6 64.4SSE29.80-- 53.4----
2024-05-28 01:40 am SE 13.6 15.5----29.80-- 53.4----
2024-05-28 01:30 amSSE 13.6 17.5----29.80-- 53.4----
2024-05-28 01:20 amSSE 13.6 17.5 3.6 44.3SSE29.81-- 53.4----
2024-05-28 01:10 amSSE 15.5 19.4 3.6-4.3SSE29.81-- 53.4----
2024-05-28 01:00 amSSE 15.5 17.5----29.82-0.06- 53.4----
2024-05-28 12:50 amSSE 15.5 19.4 3.6 44.1 SE29.82-- 53.2----
2024-05-28 12:40 amSSE 15.5 19.4 3.6-4.1 SE29.82-- 53.2----
2024-05-28 12:30 amSSE 15.5 17.5----29.83-- 53.1----
2024-05-28 12:20 am SE 15.5 19.4 3.3 54.1SSE29.83-- 53.1----
2024-05-28 12:10 am SE 17.5 19.4 3.3-4.1SSE29.83-- 52.7----
2024-05-28 12:00 am SE 15.5 19.4----29.84-0.03- 51.8----
2024-05-27 11:50 pm SE 15.5 19.4 3.3 54.2SSE29.83-- 51.4----
2024-05-27 11:40 pm SE 15.5 19.4----29.84-- 51.4----
2024-05-27 11:30 pm SE 15.5 17.5----29.85-- 51.4----
2024-05-27 11:20 pm SE 13.6 17.5 3.3 64.1SSE29.85-- 51.3----
2024-05-27 11:10 pm SE 13.6 17.5 3.3-4.1SSE29.86-- 51.1----
2024-05-27 11:00 pm SE 13.6 15.5----29.86-0.01- 51.3----
2024-05-27 10:50 pm SE 13.6 15.5----29.87-- 50.9----
2024-05-27 10:40 pm-------29.87-- 50.7----
2024-05-27 10:30 pm SE 11.7 13.6----29.87-- 50.5----
2024-05-27 10:20 pm SE 11.7 15.5 3.3 54.2 SE29.87-- 50.2----
2024-05-27 10:10 pm SE 13.6 15.5 3.3-4.2 SE29.87-- 50.2----
2024-05-27 10:00 pm SE 13.6 15.5----29.87-0.03- 50.4----
2024-05-27 09:50 pmESE 13.6 15.5 3.0 44.2SSE29.87-- 50.5----
2024-05-27 09:40 pmESE 13.6 15.5----29.87-- 50.5----
2024-05-27 09:30 pmESE 13.6 17.5----29.87-- 50.5----
2024-05-27 09:20 pmESE 13.6 17.5 3.3 54.4SSE29.88-- 50.5----
2024-05-27 09:10 pmESE 13.6 17.5 3.3-4.4SSE29.88-- 50.7----
2024-05-27 09:00 pmESE 13.6 17.5----29.87-0.05- 50.7----
2024-05-27 08:50 pmESE 13.6 17.5 3.3 54.3 SE29.87-- 50.7----
2024-05-27 08:40 pmESE 13.6 17.5----29.88-- 50.7----
2024-05-27 08:30 pmESE 13.6 17.5----29.87-- 50.9----
2024-05-27 08:20 pmESE 15.5 17.5 3.3 54.3 SE29.88-- 51.3----
2024-05-27 08:10 pmESE 15.5 17.5 3.3-4.3 SE29.88-- 51.3----
2024-05-27 08:00 pmESE 13.6 17.5----29.87-0.05- 51.4----
2024-05-27 07:50 pmESE 13.6 17.5 3.3 54.2 SE29.89-- 51.6----
2024-05-27 07:40 pmESE 13.6 17.5----29.89-- 52.0----
2024-05-27 07:20 pmESE 15.5 17.5 3.0 54.4 SE29.89-- 52.3----
2024-05-27 07:10 pmESE 15.5 19.4----29.90-- 52.5----
2024-05-27 07:00 pmESE 15.5 19.4----29.91-0.05- 52.7----
2024-05-27 06:50 pmESE 15.5 17.5 3.0 44.3 SE29.91-- 52.9----
2024-05-27 06:40 pmESE 15.5 17.5----29.91-- 53.4----
2024-05-27 06:30 pm SE 15.5 17.5----29.91-- 53.8----
2024-05-27 06:20 pm SE 13.6 17.5 2.6 44.1ESE29.92-- 54.3----
2024-05-27 06:10 pm SE 15.5 17.5 2.6-4.1ESE29.92-- 54.3----
2024-05-27 06:00 pm SE 15.5 19.4----29.92-0.04- 54.5----
2024-05-27 05:50 pmESE 15.5 19.4 3.0 44.1ESE29.91-- 54.7----
2024-05-27 05:40 pmESE 15.5 17.5 3.0-4.1ESE29.91-- 54.7----
2024-05-27 05:30 pmESE 15.5 17.5----29.92-- 55.0----
2024-05-27 05:20 pmESE 15.5 17.5 2.6 44.2 SE29.92-- 55.0----
2024-05-27 05:10 pmESE 15.5 17.5 2.6-4.2 SE29.92-- 55.4----
2024-05-27 05:00 pmESE 15.5 17.5----29.93-0.05- 55.4----
2024-05-27 04:50 pmESE 15.5 17.5 2.6 84.1SSE29.93-- 55.4----
2024-05-27 04:40 pmESE 13.6 17.5----29.93-- 55.4----
2024-05-27 04:30 pmESE 13.6 17.5----29.94-- 55.4----
2024-05-27 04:20 pmESE 13.6 15.5 2.6 44.1 SE29.94-- 55.6----
2024-05-27 04:10 pmESE 13.6 15.5 2.6-4.1 SE29.95-- 55.4----
2024-05-27 04:00 pmESE 13.6 15.5----29.96-0.04- 55.6----
2024-05-27 03:50 pmESE 13.6 15.5 2.6 44.0ESE29.96-- 55.6----
2024-05-27 03:40 pmESE 13.6 15.5----29.96-- 55.8----
2024-05-27 03:30 pmESE 13.6 15.5----29.96-- 55.8----
2024-05-27 03:20 pmESE 13.6 15.5 2.6 83.9 S29.96-- 55.9----
2024-05-27 03:10 pmESE 13.6 15.5 2.6-3.9 S29.96-- 55.9----
2024-05-27 03:00 pmESE 13.6 15.5----29.96-0.04- 55.9----
2024-05-27 02:50 pmESE 13.6 17.5 2.6 84.0SSE29.96-------
2024-05-27 02:40 pmESE 15.5 19.4 2.6-4.0SSE29.96-- 56.1----
2024-05-27 02:30 pmESE 15.5 19.4----29.96-- 56.1----
2024-05-27 02:20 pmESE 15.5 17.5 2.3 83.9 S29.96-- 55.8----
2024-05-27 02:10 pmESE 15.5 17.5 2.3-3.9 S29.97-- 55.4----
2024-05-27 02:00 pmESE 15.5 17.5----29.97-0.03- 55.4----
2024-05-27 01:50 pmESE 15.5 17.5 2.3 83.9 S29.98-- 55.4----
2024-05-27 01:40 pmESE 13.6 17.5----29.98-- 55.2----
2024-05-27 01:30 pmESE 13.6 15.5----29.99-- 55.0----
2024-05-27 01:20 pmESE 13.6 15.5 2.3 83.7 S29.98-- 54.7----
2024-05-27 01:10 pmESE 13.6 15.5 2.3-3.7 S29.99-- 54.7----
2024-05-27 01:00 pmESE 11.7 13.6----30.00+0.00- 54.5----
2024-05-27 12:50 pmESE 13.6 15.5 2.3 74.0 S29.99-- 53.8----

Detailed Wave Summary
for 44008 as of (12:40 pm EDT)
1640 GMT on 05/28/2024:

These wave data are displayed in rounded times.

     

Click on the graph icon in the table below to see a time series plot of the last five days of that observation.

5-day plot - Significant Wave Height Significant Wave Height (WVHT): 4.6 ft
5-day plot - Swell Height Swell Height (SwH): 3.6 ft
5-day plot - Swell Period Swell Period (SwP): 6.7 sec
5-day plot - Swell Direction Swell Direction (SwD): SE
5-day plot - Wind Wave Height Wind Wave Height (WWH): 3.0 ft
5-day plot - Wind Wave Period Wind Wave Period (WWP): 4.8 sec
5-day plot - Wind Wave Direction Wind Wave Direction (WWD): S
5-day plot - Wave Steepness Wave Steepness (STEEPNESS): STEEP
5-day plot - Average Wave Period Average Wave Period (APD): 4.9 sec
Previous observations
TIME
(EDT)
5-day plot - Wave Height
WVHT
ft
5-day plot - Swell Height
SwH
ft
5-day plot - Swell Period
SwP
sec
5-day plot - Swell Direction
SwD
 
5-day plot - Wind Wave Height
WWH
ft
5-day plot - Wind Wave Period
WWP
sec
5-day plot - Wind Wave Direction
WWD
 
5-day plot - Wave Steepness
STEEPNESS
 
5-day plot - Average Wave Period
APD
sec
2024-05-28 12:10 pm 4.3 2.6 6.7 SE 3.3 5.6 SSE STEEP 4.6
2024-05-28 11:40 am 4.6 2.3 10.0ESE 3.9 5.9 SSE STEEP 4.6
2024-05-28 11:10 am 4.6 2.0 7.1 SE 4.3 5.3 SVERY_STEEP 4.6
2024-05-28 10:40 am 4.9 2.0 9.1ESE 4.6 5.9 SSEVERY_STEEP 4.8
2024-05-28 10:10 am 4.9 1.3 10.8ESE 4.6 5.6 SSEVERY_STEEP 4.8
2024-05-28 09:40 am 4.6 2.6 6.7 SE 3.6 5.9 SEVERY_STEEP 5.0
2024-05-28 09:10 am 4.3 3.6 5.6 SE 2.6 4.3 SVERY_STEEP 4.9
2024-05-28 08:40 am 4.3 3.0 6.2 SE 3.0 5.6 SSE STEEP 5.0
2024-05-28 08:10 am 4.6 3.9 5.9 SE 2.3 4.3 SVERY_STEEP 5.0
2024-05-28 07:40 am 4.3 3.9 6.2 SE 1.6 4.2 S STEEP 5.1
2024-05-28 07:10 am 4.3 2.0 8.3SSE 3.6 6.2 SSE STEEP 4.8
2024-05-28 06:40 am 4.3 1.0 13.8 SE 4.3 6.2 SE STEEP 4.9
2024-05-28 06:10 am 3.9 0.0-- 3.9 5.9 SSE STEEP 4.9
2024-05-28 05:40 am 3.9 1.6 7.7SSE 3.6 6.2 SSE STEEP 4.9
2024-05-28 05:10 am 3.6 1.6 8.3SSE 3.3 6.2 SSE STEEP 4.8
2024-05-28 04:40 am 3.6 2.3 7.7SSE 3.0 5.3 SSEVERY_STEEP 4.8
2024-05-28 04:10 am 3.6 1.6 7.1 SE 3.3 6.2 SSE STEEP 4.6
2024-05-28 03:40 am 3.6 1.6 7.7SSE 3.0 6.2 SE STEEP 4.7
2024-05-28 03:10 am 3.6 1.3 8.3SSE 3.3 6.2 SE STEEP 4.6
2024-05-28 02:40 am 3.6 2.0 7.7SSE 3.3 5.3 SSEVERY_STEEP 4.5
2024-05-28 02:10 am 3.6 2.0 6.7SSE 3.0 4.8 SEVERY_STEEP 4.4
2024-05-28 01:40 am 3.6 1.3 9.1 SE 3.3 5.6 SSE STEEP 4.4
2024-05-28 01:10 am 3.6 1.6 7.7SSE 3.3 4.3 SSEVERY_STEEP 4.3
2024-05-28 12:40 am 3.6 1.3 8.3SSE 3.3 4.3 SEVERY_STEEP 4.1
2024-05-28 12:10 am 3.3 1.6 7.1 S 3.0 5.0 SSEVERY_STEEP 4.1
2024-05-27 11:40 pm 3.3 1.6 6.7SSE 3.0 4.8 SSEVERY_STEEP 4.2
2024-05-27 11:10 pm 3.3 1.6 7.7 S 3.0 5.6 SSE STEEP 4.1
2024-05-27 10:10 pm 3.3 1.6 6.7 S 3.0 5.3 SEVERY_STEEP 4.2
2024-05-27 09:40 pm 3.0 1.3 7.1SSE 2.6 4.2 SSEVERY_STEEP 4.2
2024-05-27 09:10 pm 3.3 1.6 7.7SSE 2.6 5.3 SSE STEEP 4.4
2024-05-27 08:40 pm 3.3 1.3 8.3SSE 3.0 5.3 SE STEEP 4.3
2024-05-27 08:10 pm 3.3 1.3 8.3 S 3.0 4.5 SEVERY_STEEP 4.3
2024-05-27 07:40 pm 3.3 1.3 7.7 SE 3.0 4.5 SEVERY_STEEP 4.2
2024-05-27 07:10 pm 3.0 1.3 7.1 S 2.6 5.3 SE STEEP 4.4
2024-05-27 06:40 pm 3.0 1.3 7.7SSE 2.6 4.0 SEVERY_STEEP 4.3
2024-05-27 06:10 pm 2.6 1.3 7.7SSE 2.3 4.0 ESEVERY_STEEP 4.1
2024-05-27 05:40 pm 3.0 1.3 8.3 S 2.6 3.7 ESEVERY_STEEP 4.1
2024-05-27 05:10 pm 2.6 1.3 7.1SSE 2.3 3.7 SEVERY_STEEP 4.2
2024-05-27 04:40 pm 2.6 1.3 8.3SSE 2.3 3.4 ESE AVERAGE 4.1
2024-05-27 04:10 pm 2.6 1.3 8.3 S 2.3 4.3 SEVERY_STEEP 4.1
2024-05-27 03:40 pm 2.6 1.3 9.1 S 2.3 3.7 ESE N/A 4.0
2024-05-27 03:10 pm 2.6 1.3 8.3 S 2.3 3.3 ESE N/A 3.9
2024-05-27 02:40 pm 2.6 1.3 7.7SSE 2.0 3.7 ESE N/A 4.0
2024-05-27 02:10 pm 2.3 1.3 7.7 S 2.0 3.1 ESE N/A 3.9
2024-05-27 01:40 pm 2.3 1.3 7.7 S 2.0 4.8 SSE N/A 3.9
2024-05-27 01:10 pm 2.3 1.3 7.7 S 2.0 4.5 SSE N/A 3.7

Plot of wave energy versus frequency (and period)